Погода в Яблочном

Россия / Воронежская область     51°18′06″N   39°00′26″E
темп.,
°C
ветер,
м/с
пор.,
м/с
влажн.,
%
обл.,
%
осадки,
мм/ч
давл.,
гПа
погр.,
м
14 апреля, ср
ср1400:00+12ююв228599 0.0 102228
03:00+11ю1189100 0.0 102210
06:00+10св228893 0.0 102030
09:00+14вюв4744100 0.0 1020422
12:00+18вюв673264 0.0 10181291
15:00+19ююв6924100 0.0 10161813
18:00+16ююв1144100 0.0 101629
21:00+14юв2347100 0.0 101652
15 апреля, чт
чт1500:00+13вюв2254100 0.0 101535
03:00+11юв3860100 0.0 1015188
06:00+11юв3671100 0.1 1014150
09:00+13ю456839 0.1 1015552
12:00+16ююз55515 0.1 10151400
15:00+18ю45405 0.1 10142047
18:00+16ю464774 0.0 1014431
21:00+14юв116094 0.0 101510
16 апреля, пт
пт1600:00+12ююз2265100 0.0 101418
03:00+12ююз2374100 0.0 101587
06:00+10ю238797 0.2 101683
09:00+13ю346888 0.2 1016701
12:00+16ююв4651100 0.1 10161633
15:00+17ююв5740100 0.5 10162480
18:00+15вюв464821 0.0 1016319
21:00+12ссв1163100 0.0 101715
17 апреля, сб
сб1700:00+11ссз2269100 0.0 101732
03:00+10зсз3574100 0.1 1016155
06:00+8зюз5687100 0.3 1017371
09:00+7зюз4893100 6.2 1018465
12:00+8юз1286100 2.4 1019356
15:00+8ююв2388100 2.6 1020318
18:00+10ююв2374100 0.0 1020724
21:00+7всв228988 0.3 102121
18 апреля, вс
вс1800:00+7вюв22906 0.1 102225
03:00+5в11905 0.1 102211
06:00+5ссв2292100 0.0 102239
09:00+10св347518 0.2 1022480
12:00+13св4459100 0.6 10211415
15:00+13св5560100 2.4 10211211
18:00+11св6976100 2.5 1022782
21:00+7всв51088100 2.8 1023496